This demonstration page uses our WeatherBlox Daily Observations layout. Learn more.

Left ArrowRight Arrow

Hourly Observations for December 11, 2020

Temp ( °F °C ) Dew Point ( °F °C ) Humidity (%) Winds ( mph kmh ) Pressure ( in mb ) Visibility ( mi km ) Precip ( " mm )
12:56 am 00:56 Cloudy 34 1.1 28 -2.2 79 79 N 16 26 30.00 1016 10 16 0.00 0.00
1:56 am 01:56 Cloudy 33 0.6 28 -2.2 82 82 N 16 26 29.98 1015 10 16 0.00 0.00
2:26 am 02:26 Cloudy 34 1 28 -2 81 81 N 18 30 30.03 1017 10 16 0.00 0.00
2:56 am 02:56 Cloudy 33 0.6 28 -2.2 82 82 NNE 17 28 29.98 1015 10 16 0.00 0.00
3:56 am 03:56 Cloudy 32 0 28 -2.2 85 85 N 20 31 29.97 1015 10 16 0.00 0.00
4:14 am 04:14 Cloudy with Light Wintry Mix 32 0 28 -2 87 87 N 18 30 30.03 1017 10 16 0.00 0.00
4:56 am 04:56 Windy with Snow Likely 31 -0.6 29 -1.7 92 92 N 21 33 29.98 1015 9 14 0.00 0.00
5:56 am 05:56 Cloudy with Light Snow 31 -0.6 29 -1.7 92 92 NNE 18 30 29.97 1015 3 5 0.00 0.00
6:14 am 06:14 Cloudy with Light Snow 30 -1 28 -2 93 93 N 16 26 30.03 1017 3 4 0.00 0.00
6:27 am 06:27 Cloudy with Light Snow 30 -1 28 -2 93 93 NNE 17 28 30.03 1017 2 3 0.00 0.00
6:56 am 06:56 Cloudy with Light Snow 31 -0.6 29 -1.7 92 92 N 16 26 29.98 1015 2 3 0.00 0.00
7:16 am 07:16 Cloudy with Light Snow 30 -1 28 -2 93 93 N 18 30 30.04 1017 2 3 0.00 0.00
7:25 am 07:25 Cloudy with Light Snow 30 -1 28 -2 93 93 N 17 28 30.04 1017 2 3 0.00 0.00
7:56 am 07:56 Cloudy with Light Snow 30 -1.1 29 -1.7 96 96 N 15 24 29.99 1016 1 2 0.00 0.00
8:56 am 08:56 Windy with Snow Likely 31 -0.6 29 -1.7 92 92 N 20 31 29.98 1015 2 3 0.00 0.00
9:05 am 09:05 Windy with Snow Likely 30 -1 28 -2 93 93 N 22 35 30.04 1017 2 3 0.00 0.00
9:14 am 09:14 Windy with Snow Likely 30 -1 28 -2 93 93 N 20 31 30.04 1017 3 4 0.00 0.00
9:48 am 09:48 Windy with Snow Likely 30 -1 28 -2 93 93 N 21 33 30.03 1017 2 3 0.00 0.00
9:56 am 09:56 Windy with Snow Likely 31 -0.6 29 -1.7 92 92 N 21 33 29.98 1015 2 3 0.00 0.00
10:17 am 10:17 Windy with Snow Likely 30 -1 28 -2 93 93 N 21 33 30.04 1017 2 3 0.00 0.00
10:42 am 10:42 Windy with Snow Likely 30 -1 30 -1 100 100 N 21 33 30.03 1017 3 5 0.00 0.00
10:56 am 10:56 Windy with Snow Likely 31 -0.6 29 -1.7 92 92 N 26 43 29.96 1015 4 6 0.00 0.00
11:45 am 11:45 Windy with Snow Likely 30 -1 28 -2 93 93 N 22 35 30.00 1016 2 3 0.00 0.00
11:56 am 11:56 Windy with Snow Likely 31 -0.6 29 -1.7 92 92 N 22 35 29.95 1014 3 5 0.00 0.00
12:56 pm 12:56 Cloudy with Light Wintry Mix 32 0 29 -1.7 88 88 N 18 30 29.92 1013 10 16 0.00 0.00
1:34 pm 13:34 Cloudy with Light Wintry Mix 32 0 28 -2 87 87 N 22 35 29.95 1014 10 16 0.00 0.00
1:56 pm 13:56 Cloudy with Light Wintry Mix 32 0 29 -1.7 88 88 N 22 35 29.91 1013 10 16 0.00 0.00
2:56 pm 14:56 Windy with Snow Likely 31 -0.6 29 -1.7 92 92 N 22 35 29.91 1013 8 13 0.00 0.00
3:54 pm 15:54 Cloudy with Light Snow 30 -1 28 -2 93 93 N 17 28 29.98 1015 3 5 0.00 0.00
3:56 pm 15:56 Cloudy with Light Snow 31 -0.6 28 -2.2 89 89 N 15 24 29.93 1014 3 5 0.00 0.00
4:04 pm 16:04 Windy with Snow Likely 30 -1 28 -2 93 93 N 21 33 29.98 1015 3 4 0.00 0.00
4:14 pm 16:14 Cloudy with Light Snow 30 -1 28 -2 93 93 N 18 30 29.98 1015 3 5 0.00 0.00
4:28 pm 16:28 Cloudy with Light Snow 30 -1 28 -2 93 93 N 18 30 29.99 1016 3 5 0.00 0.00
4:34 pm 16:34 Cloudy with Light Snow 30 -1 28 -2 93 93 N 18 30 29.99 1016 3 4 0.00 0.00
4:56 pm 16:56 Cloudy with Light Snow 31 -0.6 29 -1.7 92 92 N 18 30 29.94 1014 2 3 0.00 0.00
5:04 pm 17:04 Cloudy with Light Snow 30 -1 28 -2 93 93 N 18 30 29.99 1016 2 2 0.00 0.00
5:43 pm 17:43 Cloudy with Light Snow 30 -1 28 -2 93 93 N 15 24 30.00 1016 2 3 0.00 0.00
5:56 pm 17:56 Cloudy with Light Snow 30 -1.1 29 -1.7 96 96 N 17 28 29.96 1015 3 4 0.00 0.00
6:21 pm 18:21 Cloudy with Light Snow 30 -1 28 -2 93 93 N 17 28 30.01 1016 3 5 0.00 0.00
6:46 pm 18:46 Cloudy with Light Snow 30 -1 28 -2 93 93 N 17 28 30.02 1017 3 4 0.00 0.00
6:56 pm 18:56 Cloudy with Light Snow 31 -0.6 29 -1.7 92 92 N 16 26 29.97 1015 3 4 0.00 0.00
7:07 pm 19:07 Cloudy with Light Snow 30 -1 28 -2 93 93 N 16 26 30.02 1017 3 5 0.00 0.00
7:47 pm 19:47 Cloudy with Light Snow 30 -1 28 -2 93 93 N 18 30 30.03 1017 3 4 0.00 0.00
7:53 pm 19:53 Cloudy with Light Snow 30 -1 28 -2 93 93 N 17 28 30.03 1017 3 5 0.00 0.00
7:56 pm 19:56 Cloudy with Light Snow 30 -1.1 29 -1.7 96 96 N 18 30 29.99 1016 3 4 0.00 0.00
8:44 pm 20:44 Cloudy with Light Snow 30 -1 28 -2 93 93 N 18 30 30.04 1017 2 3 0.01 0.25
8:51 pm 20:51 Cloudy with Light Snow 30 -1 28 -2 93 93 N 16 26 30.04 1017 2 3 0.01 0.25
8:56 pm 20:56 Cloudy with Light Snow 30 -1.1 28 -2.2 92 92 N 17 28 30.00 1016 2 3 0.01 0.25
9:31 pm 21:31 Windy with Snow Likely 30 -1 28 -2 93 93 N 20 31 30.05 1018 4 6 0.00 0.00
9:56 pm 21:56 Windy with Snow Likely 30 -1.1 28 -2.2 92 92 N 20 31 30.01 1016 8 13 0.00 0.00
10:56 pm 22:56 Cloudy with Light Snow 29 -1.7 27 -2.8 92 92 N 16 26 30.02 1017 4 6 0.00 0.00
11:03 pm 23:03 Cloudy with Light Snow 28 -2 27 -3 93 93 N 18 30 30.07 1018 3 5 0.00 0.00
11:07 pm 23:07 Windy with Snow Likely 28 -2 27 -3 93 93 N 20 31 30.07 1018 3 4 0.00 0.00
11:32 pm 23:32 Windy with Snow Likely 28 -2 27 -3 93 93 N 20 31 30.08 1019 3 5 0.00 0.00
11:51 pm 23:51 Cloudy with Light Snow 28 -2 27 -3 93 93 N 18 30 30.08 1019 3 5 0.00 0.00
11:56 pm 23:56 Cloudy with Light Snow 29 -1.7 27 -2.8 92 92 N 18 30 30.03 1017 3 5 0.00 0.00

Powered by AerisWeather